Stündliche Wetter Bolshie Misniki

Heute, 29 Juli, Donnerstag

Zeit Temperatur Niederschläge Wind Luftdruck Luftfeuchtigkeit
00:00 +20°C° 0 mm 1 m/S 739 mmHg 87%
01:00 +18°C° 0 mm 2 m/S 739 mmHg 88%
02:00 +18°C° 0 mm 2 m/S 739 mmHg 90%
03:00 +18°C° 0 mm 2 m/S 739 mmHg 90%
04:00 +18°C° 0 mm 2 m/S 739 mmHg 90%
05:00 +19°C° 0 mm 1 m/S 739 mmHg 90%
06:00 +20°C° 0 mm 2 m/S 739 mmHg 83%
07:00 +23°C° 0 mm 2 m/S 739 mmHg 76%
08:00 +25°C° 0 mm 2 m/S 739 mmHg 68%
09:00 +26°C° 0 mm 2 m/S 739 mmHg 61%
10:00 +27°C° 0 mm 2 m/S 739 mmHg 54%
11:00 +29°C° 0 mm 2 m/S 739 mmHg 47%
12:00 +30°C° 0 mm 2 m/S 738 mmHg 43%
13:00 +30°C° 0 mm 2 m/S 738 mmHg 40%
14:00 +31°C° 0 mm 2 m/S 738 mmHg 36%
15:00 +29°C° 0.3 mm 3 m/S 737 mmHg 47%
16:00 +27°C° 0.3 mm 4 m/S 737 mmHg 58%
17:00 +25°C° 0.3 mm 5 m/S 737 mmHg 68%
18:00 +22°C° 2.1 mm 4 m/S 737 mmHg 78%
19:00 +21°C° 2.1 mm 3 m/S 737 mmHg 88%
20:00 +19°C° 2.1 mm 2 m/S 737 mmHg 97%
21:00 +18°C° 0 mm 2 m/S 737 mmHg 97%
22:00 +18°C° 0 mm 2 m/S 737 mmHg 97%
23:00 +18°C° 0 mm 2 m/S 737 mmHg 97%

Morgen, 30 Juli, Freitag

Zeit Temperatur Niederschläge Wind Luftdruck Luftfeuchtigkeit
00:00 +17°C° 0 mm 2 m/S 737 mmHg 97%
01:00 +17°C° 0 mm 2 m/S 737 mmHg 97%
02:00 +17°C° 0 mm 2 m/S 737 mmHg 97%
03:00 +16°C° 0 mm 2 m/S 737 mmHg 97%
04:00 +16°C° 0 mm 2 m/S 737 mmHg 96%
05:00 +16°C° 0 mm 2 m/S 738 mmHg 96%
06:00 +17°C° 0 mm 2 m/S 738 mmHg 89%
07:00 +19°C° 0 mm 3 m/S 738 mmHg 83%
08:00 +20°C° 0 mm 3 m/S 738 mmHg 77%
09:00 +22°C° 0 mm 3 m/S 738 mmHg 67%
10:00 +25°C° 0 mm 4 m/S 738 mmHg 56%
11:00 +26°C° 0 mm 4 m/S 738 mmHg 46%
12:00 +25°C° 0 mm 4 m/S 738 mmHg 49%
13:00 +25°C° 0 mm 4 m/S 737 mmHg 53%
14:00 +23°C° 0 mm 4 m/S 737 mmHg 57%
15:00 +23°C° 0.1 mm 4 m/S 737 mmHg 54%
16:00 +23°C° 0.1 mm 4 m/S 737 mmHg 51%
17:00 +23°C° 0.1 mm 5 m/S 737 mmHg 48%
18:00 +22°C° 0 mm 4 m/S 737 mmHg 50%
19:00 +21°C° 0 mm 4 m/S 737 mmHg 52%
20:00 +20°C° 0 mm 4 m/S 737 mmHg 53%
21:00 +19°C° 0 mm 4 m/S 737 mmHg 58%
22:00 +18°C° 0 mm 4 m/S 737 mmHg 64%
23:00 +16°C° 0 mm 3 m/S 737 mmHg 69%

übermorgen, 31 Juli, Samstag

Zeit Temperatur Niederschläge Wind Luftdruck Luftfeuchtigkeit
00:00 +16°C° 0 mm 3 m/S 737 mmHg 72%
01:00 +14°C° 0 mm 3 m/S 737 mmHg 75%
02:00 +14°C° 0 mm 3 m/S 737 mmHg 78%
03:00 +14°C° 0 mm 4 m/S 737 mmHg 77%
04:00 +15°C° 0 mm 4 m/S 737 mmHg 76%
05:00 +15°C° 0 mm 5 m/S 737 mmHg 75%
06:00 +17°C° 0 mm 5 m/S 737 mmHg 68%
07:00 +19°C° 0 mm 6 m/S 737 mmHg 61%
08:00 +21°C° 0 mm 6 m/S 737 mmHg 53%
09:00 +22°C° 0 mm 7 m/S 737 mmHg 48%
10:00 +24°C° 0 mm 7 m/S 737 mmHg 44%
11:00 +26°C° 0 mm 7 m/S 737 mmHg 39%
12:00 +26°C° 0 mm 7 m/S 737 mmHg 38%
13:00 +27°C° 0 mm 6 m/S 737 mmHg 36%
14:00 +28°C° 0 mm 6 m/S 737 mmHg 35%
15:00 +27°C° 0 mm 6 m/S 738 mmHg 36%
16:00 +27°C° 0 mm 5 m/S 738 mmHg 38%
17:00 +27°C° 0 mm 5 m/S 738 mmHg 39%
18:00 +25°C° 0 mm 4 m/S 738 mmHg 47%
19:00 +22°C° 0 mm 3 m/S 738 mmHg 55%
20:00 +20°C° 0 mm 2 m/S 738 mmHg 63%
21:00 +19°C° 0 mm 2 m/S 738 mmHg 64%
22:00 +20°C° 0 mm 1 m/S 738 mmHg 66%
23:00 +19°C° 0 mm 1 m/S 738 mmHg 68%

1 August, Sonntag

Zeit Temperatur Niederschläge Wind Luftdruck Luftfeuchtigkeit
00:00 +18°C° 0 mm 2 m/S 738 mmHg 68%
01:00 +18°C° 0 mm 2 m/S 738 mmHg 68%
02:00 +18°C° 0 mm 2 m/S 737 mmHg 69%
03:00 +18°C° 1.2 mm 2 m/S 737 mmHg 78%
04:00 +18°C° 1.2 mm 1 m/S 737 mmHg 88%
05:00 +16°C° 1.2 mm 1 m/S 737 mmHg 97%
06:00 +18°C° 0.3 mm 1 m/S 737 mmHg 95%
07:00 +19°C° 0.3 mm 1 m/S 737 mmHg 93%
08:00 +19°C° 0.3 mm 2 m/S 737 mmHg 90%
09:00 +21°C° 0 mm 2 m/S 737 mmHg 80%
10:00 +24°C° 0 mm 3 m/S 737 mmHg 70%
11:00 +26°C° 0 mm 4 m/S 737 mmHg 59%
12:00 +26°C° 0.1 mm 4 m/S 737 mmHg 55%
13:00 +27°C° 0.1 mm 4 m/S 737 mmHg 51%
14:00 +28°C° 0.1 mm 4 m/S 737 mmHg 46%
15:00 +28°C° 0 mm 4 m/S 737 mmHg 45%
16:00 +28°C° 0 mm 5 m/S 737 mmHg 43%
17:00 +27°C° 0 mm 5 m/S 737 mmHg 41%
18:00 +25°C° 0 mm 4 m/S 738 mmHg 49%
19:00 +22°C° 0 mm 3 m/S 738 mmHg 56%
20:00 +20°C° 0 mm 2 m/S 738 mmHg 64%
21:00 +19°C° 0 mm 2 m/S 738 mmHg 66%
22:00 +19°C° 0 mm 2 m/S 738 mmHg 69%
23:00 +18°C° 0 mm 2 m/S 738 mmHg 71%

2 August, Montag

Zeit Temperatur Niederschläge Wind Luftdruck Luftfeuchtigkeit
00:00 +18°C° 0 mm 2 m/S 738 mmHg 72%
01:00 +18°C° 0 mm 2 m/S 738 mmHg 72%
02:00 +19°C° 0 mm 1 m/S 738 mmHg 73%
03:00 +18°C° 0 mm 1 m/S 738 mmHg 75%
04:00 +18°C° 0 mm 1 m/S 738 mmHg 76%
05:00 +18°C° 0 mm 1 m/S 738 mmHg 78%
06:00 +18°C° 0.6 mm 1 m/S 737 mmHg 83%
07:00 +16°C° 0.6 mm 1 m/S 737 mmHg 88%
08:00 +15°C° 0.6 mm 0 m/S 737 mmHg 93%
09:00 +16°C° 1.2 mm 1 m/S 737 mmHg 94%
10:00 +17°C° 1.2 mm 2 m/S 736 mmHg 94%
11:00 +17°C° 1.2 mm 2 m/S 736 mmHg 94%
12:00 +17°C° 0.9 mm 2 m/S 736 mmHg 94%
13:00 +18°C° 0.9 mm 2 m/S 735 mmHg 93%
14:00 +18°C° 0.9 mm 2 m/S 735 mmHg 92%
15:00 +20°C° 0.4 mm 1 m/S 735 mmHg 91%
16:00 +21°C° 0.4 mm 1 m/S 735 mmHg 89%
17:00 +21°C° 0.4 mm 1 m/S 734 mmHg 88%
18:00 +19°C° 0.2 mm 2 m/S 734 mmHg 91%
19:00 +18°C° 0.2 mm 2 m/S 734 mmHg 94%
20:00 +17°C° 0.2 mm 2 m/S 734 mmHg 98%
21:00 +17°C° 0.4 mm 2 m/S 734 mmHg 98%
22:00 +17°C° 0.4 mm 3 m/S 734 mmHg 98%
23:00 +16°C° 0.4 mm 3 m/S 734 mmHg 98%

3 August, Dienstag

Zeit Temperatur Niederschläge Wind Luftdruck Luftfeuchtigkeit
00:00 +15°C° 0.7 mm 4 m/S 735 mmHg 97%
01:00 +14°C° 0.7 mm 5 m/S 735 mmHg 97%
02:00 +14°C° 0.7 mm 6 m/S 735 mmHg 96%
03:00 +13°C° 1 mm 6 m/S 735 mmHg 97%
04:00 +13°C° 1 mm 6 m/S 735 mmHg 97%
05:00 +13°C° 1 mm 5 m/S 736 mmHg 97%
06:00 +13°C° 0.6 mm 5 m/S 736 mmHg 96%
07:00 +13°C° 0.6 mm 5 m/S 737 mmHg 95%
08:00 +13°C° 0.6 mm 5 m/S 737 mmHg 94%
09:00 +15°C° 0.2 mm 5 m/S 738 mmHg 86%
10:00 +16°C° 0.2 mm 5 m/S 738 mmHg 78%
11:00 +17°C° 0.2 mm 5 m/S 739 mmHg 70%
12:00 +19°C° 0.3 mm 5 m/S 739 mmHg 67%
13:00 +19°C° 0.3 mm 5 m/S 739 mmHg 65%
14:00 +19°C° 0.3 mm 5 m/S 740 mmHg 63%
15:00 +19°C° 0.2 mm 5 m/S 740 mmHg 65%
16:00 +18°C° 0.2 mm 4 m/S 740 mmHg 66%
17:00 +18°C° 0.2 mm 4 m/S 740 mmHg 68%
18:00 +17°C° 0 mm 4 m/S 741 mmHg 72%
19:00 +14°C° 0 mm 3 m/S 741 mmHg 76%
20:00 +14°C° 0 mm 2 m/S 741 mmHg 79%
21:00 +14°C° 0 mm 2 m/S 742 mmHg 80%
22:00 +13°C° 0 mm 2 m/S 742 mmHg 80%
23:00 +13°C° 0 mm 2 m/S 742 mmHg 80%
Mehr zeigen

Wir brauchen deine Erlaubnis

Meteoprog und unser Service Anbieter werden persönliche Daten aufbewahren, so wie Cookies, Geräte Bezeichnung oder ähnliche Technologien von deinem Gerät und Prozess, so wie Persönliche Daten Inhalte und Werbungen, genauso wie social Media und den Verkehr zu analysieren.

  • Aufbewahrung und/oder Zugang zu deiner Geräte Informationen.

    Cookies, Geräte Bezeichnung oder andere Informationen, können aufbewahrt oder Zugang zu deinem Gerät erhalten, für den Grund, der oben angegeben wird.

  • Personalisierte Werbung und Inhalte, Messungen, Einblick in das Publikum und Produkt Entwicklung.

    Werbungen und Inhalte können personalisiert werden, basierend auf ein Profil. Mehr Daten können besser personalisierte Werbungen und Inhalte hinzufügen. Werbung und Inhalte können gezeigt und gemessen werden. Einblicke über das Publikum, welche die Werbung gesehen haben und den Inhalt, können abgeleitet werden. So wie Daten können genutzt werden, um es zu verbessern oder die Benutzer Erfahrung zu verbessern das System und die Software.

Wenn du “Ich stimme zu” klickst, erlaubst du uns, die Cookies zu benutzen die Geräte Bezeichnung, den Web oder ähnliche Technologien zu benutzen. Deine Settings, können in deinem Gerät bei deinem Browser geändert werden.

Für den bestimmten Zweck, berechtigten Interessen beruhen darauf, mehr als auf den Inhalt. Du kannst mehr darüber in unseren Privaten und Cookie Politik lesen.